Weather past 2 weeks in Saipan, Northern Mariana Islands

Now
86 °F

Sunny.


Feels Like: 97 °F
Forecast: 77 / 84 °F
Wind: 14 mph from Northeast

Location: Saipan International Airport

Current Time: Jun 30, 2015 at 9:18:10 AM

Latest Report: Jun 30, 2015 at 8:54 AM


Visibility: 10 mi

Pressure: 29.93 "Hg

Humidity: 75%

Dew point: 77 °F

Location of SaipanLocation

Historic Weather in Saipan — Graph

°F

Saipan temperature yesterday

Maximum temperature yesterday: 89 °F (at 1:54 PM)
Minimum temperature yesterday: 79 °F (at 4:54 AM)
Average temperature yesterday: 84 °F

Past Weeks' High & Low Weather Summary

 TemperatureHumidityPressure
High89 °F (Jun 23, 12:54 PM)94% (Jun 24, 3:54 AM)30.00 "Hg (Jun 24, 3:54 AM)
Low77 °F (Jun 24, 3:54 AM)63% (Jun 19, 1:54 PM)29.80 "Hg (Jun 18, 2:23 PM)
Average83 °F79%29.93 "Hg
* Reported Jun 15 7:54 AM — Jun 30 7:54 AM, Saipan, Weather by CustomWeather, © 2015

Note: Actual official high and low records may vary slightly from our data, if they occured in-between our weather recording intervals... More about our weather records

Advertising

Saipan weather history for previous 24 hours

 ConditionsComfort  
Time TempWeatherWind HumidityBarometerVisibility
7:54 AM
Tue, Jun 30
85 °FPassing clouds.13 mph75%29.93 "Hg10 mi
6:54 AM82 °FPassing clouds.10 mph82%29.93 "Hg10 mi
5:54 AM81 °FScattered clouds.7 mph85%29.91 "Hg10 mi
4:54 AM81 °FPassing clouds.10 mph85%29.91 "Hg10 mi
3:54 AM81 °FPassing clouds.8 mph85%29.91 "Hg10 mi
2:54 AM81 °FPassing clouds.9 mph85%29.92 "Hg10 mi
1:54 AM81 °FPassing clouds.7 mph85%29.92 "Hg10 mi
12:54 AM82 °FPassing clouds.6 mph82%29.93 "Hg10 mi
11:54 PM
Mon, Jun 29
82 °FClear.5 mph82%29.94 "Hg10 mi
10:54 PM82 °FClear.5 mph79%29.95 "Hg10 mi
9:54 PM82 °FClear.6 mph85%29.94 "Hg10 mi
8:54 PM83 °FPassing clouds.6 mph79%29.93 "Hg10 mi
7:54 PM83 °FPassing clouds.6 mph79%29.91 "Hg10 mi
6:54 PM83 °FPassing clouds.7 mph79%29.89 "Hg10 mi
5:54 PM84 °FScattered clouds.13 mph80%29.87 "Hg10 mi
4:54 PM86 °FBroken clouds.12 mph75%29.86 "Hg10 mi
3:54 PM86 °FBroken clouds.13 mph75%29.86 "Hg10 mi
2:54 PM87 °FScattered clouds.14 mph72%29.87 "Hg10 mi
1:54 PM89 °FSunny.17 mph65%29.89 "Hg10 mi
12:54 PM88 °FScattered clouds.18 mph70%29.90 "Hg10 mi
11:54 AM87 °FPassing clouds.16 mph72%29.92 "Hg10 mi
10:15 AM84 °FLight rain. Broken clouds.15 mph84%29.87 "Hg4 mi
9:54 AM87 °FScattered clouds.15 mph72%29.94 "Hg10 mi
Weather by CustomWeather, © 2015

See weather overviewHow to use our weather pages